Tracking 19146 objects as of 23-Apr-2018
HD Live streaming from Space Station
objects crossing your sky now

CZ-3A DEB

Track CZ-3A DEB now!


NORAD ID: 35557
Int'l Code: 2007-003R
Perigee: 355.4 km
Apogee: 28,869.8 km
Inclination: 22.6 °
Period: 504.2 minutes
Semi major axis: 20983 km
RCS: 0.1574 m2 (medium)
Launch date: February 2, 2007
Source: People's Republic of China (PRC)
Launch site: Xichang Space Center, China (XSC)

Note: This is SATELLITE DEBRIS
aabbcc
Your satellite tracking list
Your tracking list is empty




NASA's NSSDC Master Catalog

Two Line Element Set (TLE):
1 35557U 07003R   18111.43936746  .00001972  00000-0  18691-2 0  9995
2 35557  22.6320 232.7422 6794432  59.4380 350.2332  2.85616359 88186
Source of the keplerian elements: AFSPC